Regional Weather Roundup
Issued by NWS Sioux Falls, SD

Home | Current Version | Previous Version | Text Only | Print | Product List | Glossary On
Versions: 1 2 3 4 5 6 7 8 9 10 11 12 13 14 15 16 17 18 19 20 21 22 23 24 25 26 27 28 29 30 31 32 33 34 35 36 37 38 39 40 41 42 43 44 45 46 47 48 49 50
000
ASUS43 KFSD 200302
RWRFSD

WEATHER ROUNDUP FOR SE SOUTH DAKOTA/SW MINNESOTA/NW IOWA
NATIONAL WEATHER SERVICE SIOUX FALLS SD
900 PM CST FRI DEC 19 2014

NOTE: "FAIR" INDICATES FEW OR NO CLOUDS BELOW 12,000 FEET WITH NO
SIGNIFICANT WEATHER AND OR OBSTRUCTIONS TO VISIBILITY.


SDZ038>040-050-052>070-200400-
SOUTHEAST SOUTH DAKOTA

CITY           SKY/WX    TMP DP  RH WIND       PRES   REMARKS
CHAMBERLAIN    NOT AVBL
HURON          CLOUDY    29  27  92 S12       30.03S WCI  19
MADISON        CLOUDY    28  28 100 S16       30.04S WCI  17
MITCHELL       CLOUDY    30  27  88 S15       30.05F FOG     WCI  19
SIOUX FALLS    CLOUDY    31  28  89 S10       30.08S WCI  22
WINNER         FAIR      28  22  78 S7        29.98S WCI  21
YANKTON        CLOUDY    32  28  86 S6        30.08R WCI  26
$$

MNZ071-072-080-081-089-090-097-098-200400-
SOUTHWEST MINNESOTA

CITY           SKY/WX    TMP DP  RH WIND       PRES   REMARKS
FAIRMONT       CLOUDY    30  25  80 S10       30.13S WCI  21
JACKSON        CLOUDY    32  28  86 S10       30.11S WCI  24
LUVERNE        CLOUDY    32  30  93 S8        30.09S FOG     WCI  25
MARSHALL       CLOUDY    30  27  86 SW15      30.08S WCI  19
MONTEVIDEO     CLOUDY    30  30 100 SW8       30.08F FOG     WCI  23
PIPESTONE      CLOUDY    30  28  93 S5        30.05F FOG     WCI  25
REDWOOD FALLS  CLOUDY    33  28  81 S10       30.11F WCI  25
TRACY          CLOUDY    32  29  90 S9G18     30.09S WCI  24
WINDOM         CLOUDY    32  28  86 S6        30.10S FOG     WCI  26
WORTHINGTON    CLOUDY    30  27  86 S8        30.10R WCI  23
$$

IAZ001>003-012>014-020>022-031-032-NEZ013-014-SDZ071-200400-
NORTHWEST IOWA

CITY           SKY/WX    TMP DP  RH WIND       PRES   REMARKS
DENISON        CLOUDY    30  30 100 S12       30.12F WCI  21
ESTHERVILLE    CLOUDY    30  29  96 S12       30.11F WCI  20
SIOUX CITY     CLOUDY    33  28  81 SE7       30.11F WCI  27
SPENCER        CLOUDY    32  28  85 S9        30.11F WCI  24
$$

ABBREVIATIONS USED IN REMARKS
   TC - TEMPERATURE IN CELSIUS
  WCI - WIND CHILL INDEX
   HX - HEAT INDEX
  VSB - VISIBILITY




USA.gov is the U.S. government's official web portal to all federal, state and local government web resources and services.